PEGASUS DEB, 39927

Orbit data source: Space-Track

PEGASUS DEB, 39927 is space debris in LEO originally from a launch on Thu, 19 May 1994 UTC launched from the Air Force Western Test Range (AFWTR). Debris objects in space refer to the collection of defunct objects orbiting the Earth. Examples of debris include non-operational satellites, rocket bodies, and fragments generated from explosions, collisions, or faulty payload assembly.

Loading next visibility...
Identifier
39927, 1994-029AGA
Orbit
LEO
Country
Flag of USUS
Related business
Manufacturer
Unknown
Mission
Spacecraft
Bus & Motor
Unknown
Mass
Unknown
Launch date (UTC)
1994-05-19 (32 years ago)
Launch vehicle
Unknown
Launch site
Air Force Western Test Range (AFWTR)
Object type
Payload
Rocket body
Debris
Shape & HBR
Unknown shape, 0.1 m
Radar Cross Section
Small (<0.1 m²)

Expand to show TLE details & history
Last TLE update: 4 days ago

TLE from 4 days ago
0 PEGASUS DEB
1 39927U 94029AGA 26115.09277216  .00110982  00000-0  12029-2 0  9990
2 39927  81.7899 248.2957 0013562 350.5859   9.5141 15.63044927648967
Epoch: 2026-04-25T02:13Z
TLE epoch observation values (Epoch: 2026-04-25T02:13:35.514Z)
Latitude
0.00003°
Longitude
1.78163°
Altitude
372.952 km
Speed
7.691 km/s
True Right ascension
16h 33m 10s
True Declination
0° 00' 00"
Sunlit
Object was in full shadow at epoch
Visualization orbit readout
Latitude
Unknown
Longitude
Unknown
Altitude
Unknown
Speed
Unknown
Apparent Right ascension
Unknown
Apparent Declination
Unknown
Sunlit
N/A
Visualization observer readout
Local Sidereal Time
16:26:34
Azimuth
Unknown
Elevation
Unknown
Doppler factor
Unknown
Orbital elements
Apogee altitude
384.973 km
Perigee altitude
366.653 km
Semi-major axis
6,753.95 km
Eccentricity
0.00136
Inclination
81.7899°
RAAN
248.2957°
Arg. of periapsis
350.5859°
True anomaly
9.53983°
Mean anomaly
9.5141°
Eccentric anomaly
9.52696°
Mean motion
3.91027 °/min
Orbital period
92.07 mins
BSTAR
0.0012029
Loading maneuver chart data...
Computing Atmospheric mass density...
Loading historical data...
Loading historical data...
Loading historical data...
Loading historical data...
Loading historical data...
Loading historical data...
Loading historical data...

Documentation

Showing up to 5 results
|